| time (UTC) | temp F | wind direction | speed knots | gust knots | rain 1hr in | rain 24hr in | rain mn in | humidity % | barometer mb |
| 20260903160006 | 74 | 64 | 0.0 | 0.0 | 0.00 | 0.00 | 0.00 | 78 | 1014.3 |
| 20260903154502 | 73 | 64 | 0.0 | 0.0 | 0.00 | 0.00 | 0.00 | 81 | 1014.3 |
| 20260903153058 | 71 | 58 | 0.0 | 0.0 | 0.00 | 0.00 | 0.00 | 83 | 1014.2 |
| 20260903151554 | 69 | 48 | 0.0 | 0.0 | 0.00 | 0.00 | 0.00 | 85 | 1014.3 |
| 20260903150051 | 68 | 48 | 0.0 | 0.0 | 0.00 | 0.00 | 0.00 | 86 | 1014.3 |
| 20260903144547 | 66 | 48 | 0.0 | 0.0 | 0.00 | 0.00 | 0.00 | 88 | 1014.4 |
| 20260903143102 | 65 | 48 | 0.0 | 0.0 | 0.00 | 0.00 | 0.00 | 88 | 1014.1 |
| 20260903141558 | 64 | 48 | 0.0 | 0.0 | 0.00 | 0.00 | 0.00 | 90 | 1013.9 |
| 20260903140046 | 64 | 47 | 0.0 | 0.0 | 0.00 | 0.00 | 0.00 | 90 | 1013.7 |
| 20260903134548 | 63 | 47 | 0.0 | 0.0 | 0.00 | 0.00 | 0.00 | 91 | 1013.5 |
| 20260903133045 | 63 | 47 | 0.0 | 1.7 | 0.00 | 0.00 | 0.00 | 92 | 1013.5 |
| 20260903131545 | 63 | 278 | 0.0 | 0.0 | 0.00 | 0.00 | 0.00 | 92 | 1013.4 |
| 20260903130042 | 63 | 278 | 0.0 | 0.0 | 0.00 | 0.00 | 0.00 | 92 | 1013.5 |
| 20260903124544 | 62 | 278 | 0.0 | 0.0 | 0.00 | 0.00 | 0.00 | 92 | 1013.5 |
| 20260903123041 | 63 | 278 | 0.0 | 0.0 | 0.00 | 0.00 | 0.00 | 92 | 1013.5 |
| 20260903121540 | 63 | 278 | 0.0 | 0.0 | 0.00 | 0.00 | 0.00 | 92 | 1013.4 |
| 20260903120039 | 63 | 278 | 0.0 | 0.0 | 0.00 | 0.00 | 0.00 | 92 | 1013.5 |
| 20260903114544 | 63 | 278 | 0.0 | 0.0 | 0.00 | 0.00 | 0.00 | 91 | 1013.6 |
| 20260903113036 | 63 | 278 | 0.0 | 0.0 | 0.00 | 0.00 | 0.00 | 92 | 1013.8 |
| 20260903111540 | 63 | 278 | 0.0 | 0.0 | 0.00 | 0.00 | 0.00 | 92 | 1013.8 |
| 20260903110040 | 63 | 278 | 0.0 | 0.0 | 0.00 | 0.00 | 0.00 | 92 | 1013.8 |
| 20260903104538 | 63 | 278 | 0.0 | 0.0 | 0.00 | 0.00 | 0.00 | 91 | 1013.9 |
| 20260903103035 | 63 | 278 | 0.0 | 0.0 | 0.00 | 0.00 | 0.00 | 91 | 1014.0 |
| 20260903101537 | 64 | 278 | 0.0 | 0.0 | 0.00 | 0.00 | 0.00 | 91 | 1014.1 |
| 20260903100029 | 64 | 278 | 0.0 | 0.0 | 0.00 | 0.00 | 0.00 | 92 | 1014.0 |
| 20260903094528 | 64 | 278 | 0.0 | 1.7 | 0.00 | 0.00 | 0.00 | 92 | 1014.1 |
| 20260903093026 | 64 | 278 | 0.0 | 0.0 | 0.00 | 0.00 | 0.00 | 91 | 1014.2 |
| 20260903091524 | 64 | 278 | 0.0 | 0.0 | 0.00 | 0.00 | 0.00 | 91 | 1014.3 |
| 20260903090022 | 64 | 278 | 0.0 | 0.0 | 0.00 | 0.00 | 0.00 | 91 | 1014.5 |
| 20260903084520 | 64 | 278 | 0.0 | 0.0 | 0.00 | 0.00 | 0.00 | 90 | 1014.6 |
| 20260903083033 | 64 | 278 | 0.0 | 0.0 | 0.00 | 0.00 | 0.00 | 90 | 1014.6 |
| 20260903081529 | 64 | 278 | 0.0 | 0.0 | 0.00 | 0.00 | 0.00 | 89 | 1014.7 |
| 20260903080017 | 65 | 278 | 0.0 | 0.0 | 0.00 | 0.00 | 0.00 | 89 | 1014.7 |
| 20260903074516 | 65 | 278 | 0.0 | 0.0 | 0.00 | 0.00 | 0.00 | 88 | 1014.8 |
| 20260903073017 | 65 | 278 | 0.0 | 0.0 | 0.00 | 0.00 | 0.00 | 87 | 1014.7 |
| 20260903071510 | 66 | 278 | 0.0 | 0.0 | 0.00 | 0.00 | 0.00 | 87 | 1014.7 |
| 20260903070008 | 66 | 278 | 0.0 | 0.0 | 0.00 | 0.00 | 0.00 | 86 | 1014.6 |
| 20260903064509 | 67 | 278 | 0.0 | 0.0 | 0.00 | 0.00 | 0.00 | 86 | 1014.7 |
| 20260903063007 | 68 | 278 | 0.0 | 0.0 | 0.00 | 0.00 | 0.00 | 85 | 1014.6 |
| 20260903061509 | 68 | 278 | 0.0 | 2.6 | 0.00 | 0.00 | 0.00 | 84 | 1014.5 |
| 20260903060006 | 68 | 278 | 0.0 | 0.9 | 0.00 | 0.00 | 0.00 | 82 | 1014.6 |
| 20260903054506 | 69 | 278 | 0.9 | 3.5 | 0.00 | 0.00 | 0.00 | 83 | 1014.7 |
| 20260903053005 | 69 | 278 | 2.6 | 7.0 | 0.00 | 0.00 | 0.00 | 83 | 1014.7 |
| 20260903051505 | 68 | 278 | 0.0 | 0.0 | 0.00 | 0.00 | 0.00 | 82 | 1014.6 |
| 20260903050004 | 69 | 278 | 0.0 | 0.0 | 0.00 | 0.00 | 0.00 | 81 | 1014.6 |
| 20260903044504 | 69 | 278 | 0.0 | 6.1 | 0.00 | 0.00 | 0.00 | 81 | 1014.5 |
| 20260903043004 | 69 | 278 | 1.7 | 4.3 | 0.00 | 0.00 | 0.00 | 81 | 1014.4 |
| 20260903041503 | 69 | 277 | 1.7 | 5.2 | 0.00 | 0.00 | 0.00 | 81 | 1014.5 |
| 20260903040003 | 69 | 277 | 0.0 | 1.7 | 0.00 | 0.00 | 0.00 | 78 | 1014.4 |
| 20260903034502 | 70 | 277 | 0.9 | 3.5 | 0.00 | 0.00 | 0.00 | 79 | 1014.1 |
| 20260903033002 | 70 | 277 | 2.6 | 7.0 | 0.00 | 0.00 | 0.00 | 80 | 1014.0 |
| 20260903031600 | 71 | 284 | 2.6 | 7.8 | 0.00 | 0.00 | 0.00 | 79 | 1013.9 |
| 20260903030100 | 71 | 273 | 5.2 | 7.8 | 0.00 | 0.00 | 0.00 | 79 | 1013.9 |
| 20260903024600 | 71 | 269 | 4.3 | 8.7 | 0.00 | 0.00 | 0.00 | 78 | 1013.9 |
| 20260903023059 | 71 | 261 | 7.0 | 10.4 | 0.00 | 0.00 | 0.00 | 78 | 1013.7 |
| 20260903021558 | 72 | 275 | 7.0 | 10.4 | 0.00 | 0.00 | 0.00 | 77 | 1013.8 |
| 20260903020059 | 72 | 257 | 8.7 | 13.0 | 0.00 | 0.00 | 0.00 | 76 | 1013.8 |
| 20260903014557 | 72 | 282 | 8.7 | 14.8 | 0.00 | 0.00 | 0.00 | 75 | 1013.7 |
| 20260903013056 | 73 | 257 | 7.8 | 15.6 | 0.00 | 0.00 | 0.00 | 76 | 1013.7 |
| 20260903011605 | 73 | 260 | 10.4 | 18.2 | 0.00 | 0.00 | 0.00 | 75 | 1013.7 |
| 20260903010052 | 74 | 276 | 12.2 | 17.4 | 0.00 | 0.00 | 0.00 | 75 | 1013.6 |
| 20260903004550 | 76 | 259 | 10.4 | 18.2 | 0.00 | 0.00 | 0.00 | 76 | 1013.6 |
| 20260903003049 | 75 | 260 | 10.4 | 17.4 | 0.00 | 0.00 | 0.00 | 76 | 1013.5 |
| 20260903001548 | 76 | 284 | 9.6 | 15.6 | 0.00 | 0.00 | 0.00 | 75 | 1013.5 |
| 20260903000047 | 77 | 273 | 8.7 | 14.8 | 0.00 | 0.00 | 0.00 | 73 | 1013.6 |
| 20260902234547 | 77 | 219 | 7.0 | 14.8 | 0.00 | 0.00 | 0.00 | 72 | 1013.7 |
| 20260902233054 | 78 | 253 | 4.3 | 12.2 | 0.00 | 0.00 | 0.00 | 68 | 1013.9 |
| 20260902231553 | 78 | 221 | 5.2 | 13.0 | 0.00 | 0.00 | 0.00 | 64 | 1014.0 |
| 20260902230041 | 78 | 259 | 6.1 | 13.0 | 0.00 | 0.00 | 0.00 | 66 | 1014.0 |
| 20260902224547 | 78 | 233 | 5.2 | 13.0 | 0.00 | 0.00 | 0.00 | 67 | 1014.2 |
| 20260902223037 | 79 | 206 | 5.2 | 8.7 | 0.00 | 0.00 | 0.00 | 71 | 1014.4 |
| 20260902221545 | 79 | 209 | 6.1 | 10.4 | 0.00 | 0.00 | 0.00 | 70 | 1014.5 |
| 20260902220033 | 79 | 217 | 6.1 | 11.3 | 0.00 | 0.00 | 0.00 | 70 | 1014.7 |
| 20260902214531 | 78 | 223 | 6.1 | 10.4 | 0.00 | 0.00 | 0.00 | 70 | 1014.9 |
| 20260902213030 | 78 | 281 | 6.1 | 13.0 | 0.00 | 0.00 | 0.00 | 71 | 1015.1 |
| 20260902211534 | 79 | 272 | 5.2 | 13.0 | 0.00 | 0.00 | 0.00 | 71 | 1015.2 |
| 20260902210027 | 79 | 250 | 5.2 | 9.6 | 0.00 | 0.00 | 0.00 | 71 | 1015.3 |
| 20260902204525 | 78 | 235 | 5.2 | 8.7 | 0.00 | 0.00 | 0.00 | 71 | 1015.4 |
| 20260902203025 | 79 | 260 | 4.3 | 9.6 | 0.00 | 0.00 | 0.00 | 69 | 1015.4 |
| 20260902201533 | 78 | 260 | 5.2 | 8.7 | 0.00 | 0.00 | 0.00 | 70 | 1015.4 |
| 20260902200023 | 78 | 269 | 2.6 | 9.6 | 0.00 | 0.00 | 0.00 | 71 | 1015.6 |
| 20260902194523 | 78 | 286 | 5.2 | 10.4 | 0.00 | 0.00 | 0.00 | 70 | 1015.7 |
| 20260902193021 | 78 | 311 | 4.3 | 9.6 | 0.00 | 0.00 | 0.00 | 70 | 1015.8 |
| 20260902191528 | 78 | 280 | 4.3 | 9.6 | 0.00 | 0.00 | 0.00 | 70 | 1016.0 |
| 20260902190018 | 78 | 275 | 5.2 | 11.3 | 0.00 | 0.00 | 0.00 | 70 | 1016.1 |
| 20260902184516 | 78 | 196 | 1.7 | 6.1 | 0.00 | 0.00 | 0.00 | 70 | 1016.0 |
| 20260902183019 | 77 | 214 | 0.9 | 7.0 | 0.00 | 0.00 | 0.00 | 71 | 1016.2 |
| 20260902181512 | 77 | 284 | 2.6 | 7.8 | 0.00 | 0.00 | 0.00 | 71 | 1016.4 |
| 20260902180012 | 77 | 256 | 2.6 | 8.7 | 0.00 | 0.00 | 0.00 | 71 | 1016.4 |
| 20260902174510 | 77 | 248 | 3.5 | 7.0 | 0.00 | 0.00 | 0.00 | 70 | 1016.4 |
| 20260902173008 | 77 | 226 | 1.7 | 8.7 | 0.00 | 0.00 | 0.00 | 72 | 1016.3 |
| 20260902171505 | 76 | 249 | 1.7 | 7.8 | 0.00 | 0.00 | 0.00 | 71 | 1016.2 |
| 20260902170002 | 76 | 236 | 1.7 | 5.2 | 0.00 | 0.00 | 0.00 | 74 | 1016.1 |
| 20260902164559 | 75 | 215 | 0.9 | 5.2 | 0.00 | 0.00 | 0.00 | 76 | 1016.2 |
| 20260902163103 | 74 | 167 | 1.7 | 5.2 | 0.00 | 0.00 | 0.00 | 75 | 1016.1 |
| 20260902161556 | 74 | 282 | 1.7 | 6.1 | 0.00 | 0.00 | 0.00 | 78 | 1016.0 |